SCP
0 0 0 0 1 1 1 1 1 1 0 0 0 0 0 0 0 0 0 0 0 0 0 0 0 0 0 0 0 0 0 1 1 1 1 1 2 1 1 1 1 1 1
1 0 0 0 0 1 1 1 1 1 1 0 0 0 0 0 0 0 0 0 0 0 0 0 0 0 0 0 0 0 1 0 0 0 0 0 0 0 0 1 1 1 1
1 1 0 1 0 1 1 0 1 1 0 0 0 0 0 0 0 0 0 -0 0 0 0 0 0 0 0 0 0 0 0 0 0 0 0 0 0 0 0 0 0 1 1
1 1 0 0 1 1 1 0 1 0 0 0 0 0 0 0 0 0 0 0 0 0 0 0 0 0 0 0 0 0 0 0 0 0 0 0 0 0 0 0 0 0 0
1 1 0 0 1 0 1 1 1 1 0 0 0 0 0 0 0 0 0 0 0 0 0 0 0 0 0 0 0 0 0 0 0 0 0 0 0 0 0 0 0 0 0
1 1 1 0 1 0 0 1 1 1 0 0 0 0 0 0 0 0 0 0 0 0 0 0 0 0 0 0 0 0 0 0 0 0 0 0 0 0 0 0 0 0 0
1 1 1 1 1 1 1 1 0 0 0 0 0 0 0 0 1 0 0 0 0 0 0 0 0 0 0 0 0 0 0 0 0 0 0 0 0 0 0 0 0 0 0
1 1 1 1 2 1 2 1 1 0 0 0 0 0 0 0 0 1 1 0 0 0 0 0 0 0 0 0 1 0 0 0 0 0 0 0 0 0 0 0 0 0 0
1 2 2 2 2 2 1 3 1 1 1 1 1 1 0 0 0 0 0 0 1 1 0 0 0 0 0 0 0 0 0 0 0 0 0 0 0 0 0 0 0 0 0
0 1 1 1 2 2 3 2 2 2 2 1 1 1 1 1 1 0 0 1 0 1 1 0 0 1 1 0 0 0 0 0 0 0 0 0 0 0 0 0 0 0 0
0 0 1 1 1 2 3 2 2 3 3 3 2 1 1 2 2 1 1 0 0 0 1 1 0 0 1 1 0 1 0 0 0 0 0 0 0 0 0 0 0 0 0
0 0 0 0 0 0 0 1 2 3 3 3 3 4 3 2 1 1 1 1 1 1 1 0 0 0 1 0 1 0 0 0 0 0 0 0 0 0 0 0 0 0 0
0 0 0 0 0 0 0 0 0 1 2 2 2 3 3 4 2 1 2 1 0 0 0 0 0 0 1 1 1 0 0 0 0 0 0 0 0 0 0 0 0 0 0
0 0 0 0 0 0 0 0 0 1 1 2 1 2 2 2 0 0 0 0 0 0 0 0 0 0 0 0 0 0 0 0 0 0 0 0 0 0 0 0 0 0 0
0 0 0 0 0 0 0 0 0 1 1 1 0 1 0 0 0 0 0 0 0 0 0 0 0 0 0 0 0 0 0 0 0 0 0 0 0 0 0 0 0 0 0
0 0 0 0 0 0 0 0 0 0 0 0 0 0 0 0 0 0 0 0 0 0 0 0 0 0 0 0 0 0 0 0 0 0 0 0 0 0 0 0 0 0 0
0 0 0 0 0 0 0 0 0 0 0 0 0 0 0 0 0 0 0 0 0 0 0 0 0 0 0 0 0 0 0 0 0 0 0 0 0 0 0 0 0 0 0
0 0 0 0 0 0 -0 -0 -0 -0 0 0 0 0 0 0 0 0 0 0 0 0 0 0 0 0 0 0 0 0 0 0 0 0 0 -0 -0 0 0 0 0 0 0
0 0 0 0 -0 0 0 0 0 0 0 0 0 0 0 0 0 0 0 0 0 0 0 0 0 0 0 0 0 0 0 0 -0 -0 0 -0 -0 0 0 0 0 0 0
-0 0 -0 -0 0 0 0 0 0 0 0 0 0 0 0 0 0 0 0 0 0 0 0 0 0 0 0 0 0 0 0 0 0 -0 0 0 0 0 0 0 0 0 0
-0 -0 -0 -0 -0 0 -0 -0 -0 -0 0 0 0 0 0 0 0 0 0 0 0 0 0 0 0 0 0 0 0 0 0 -0 -0 0 0 0 0 0 0 0 0 0 0
0 0 0 0 0 0 0 0 0 0 0 0 0 0 0 0 0 0 0 -0 -0 -0 0 0 -0 -0 0 0 0 -0 -0 -0 0 0 0 0 0 0 0 0 0 0 0
0 0 0 0 0 0 0 0 0 0 0 0 0 0 0 0 -0 -0 -0 0 0 0 -0 -0 0 0 -0 0 -0 -0 -0 0 0 0 0 0 0 0 0 0 0 0 0
0 0 0 0 0 0 0 0 -0 0 -0 0 0 0 -0 0 0 0 -0 -0 0 0 0 0 0 0 0 0 -0 -0 0 0 0 0 0 -0 -0 0 0 0 0 0 0
0 0 -0 -0 -0 -0 -0 -0 -0 -0 0 0 0 0 -0 -0 -0 -0 0 0 -0 0 0 0 0 0 -0 -0 0 0 0 0 0 0 -0 -0 -0 -0 0 0 0 0 0
0 0 0 0 -0 -0 -0 -0 -0 -0 -0 -0 0 0 0 -0 -0 -0 -0 -0 -0 0 0 0 0 0 0 0 0 0 0 0 0 0 0 -0 -0 -0 -0 0 0 0 0
Wind_Speed_500mb
13 13 14 14 22 21 28 30 31 42 43 37 25 24 23 14 20 24 23 29 33 29 25 26 26 26 26 27 29 34 37 38 40 40 41 43 49 52 54 55 56 57 58
13 13 17 17 21 24 27 24 30 37 41 44 37 37 47 32 22 25 13 29 43 40 31 26 26 25 27 29 32 36 38 40 43 43 43 44 47 49 52 54 58 60 62
15 18 16 22 27 27 35 25 27 32 38 36 35 37 29 32 28 48 23 26 37 40 35 30 27 29 33 33 34 37 40 41 43 44 46 49 51 51 52 53 57 61 63
20 20 19 23 27 31 26 23 23 25 30 42 46 45 41 41 47 32 31 35 29 29 32 36 34 32 36 39 38 38 39 41 45 45 48 52 55 58 61 61 60 61 63
20 22 25 30 38 36 33 27 35 28 30 30 39 46 40 32 32 37 37 37 32 34 24 29 38 42 38 43 43 40 40 41 46 50 52 56 59 60 62 63 65 67 70
20 26 20 26 35 22 21 23 23 25 23 24 23 28 29 30 31 35 36 35 32 32 29 28 29 31 40 44 48 46 41 40 44 52 56 60 62 62 64 66 67 66 69
23 29 25 22 34 22 26 27 30 27 28 27 27 31 38 53 44 43 40 38 36 35 37 38 39 36 30 40 44 44 49 51 56 58 56 60 59 61 64 67 68 69 72
25 27 32 33 25 33 29 41 40 31 34 29 35 35 42 41 44 46 41 41 38 40 41 39 36 37 37 37 39 48 56 64 58 56 51 56 59 61 62 64 66 68 71
30 26 25 26 30 34 32 37 40 33 36 40 40 38 34 47 47 47 54 50 49 41 38 44 44 38 46 41 51 49 47 53 56 51 59 61 62 62 62 63 64 69 70
32 33 40 38 34 37 40 39 35 43 45 48 44 44 48 52 52 54 52 55 57 51 47 38 49 48 44 41 44 46 58 54 52 58 63 62 55 59 56 55 60 61 50
36 32 33 45 38 40 47 47 54 58 54 52 49 54 53 52 48 51 60 51 55 57 67 64 47 49 58 57 71 61 53 55 57 59 53 56 62 55 53 46 46 40 40
39 33 35 42 47 55 56 58 54 57 59 60 58 56 50 50 51 50 53 48 49 49 46 48 35 44 55 50 37 45 61 62 61 60 58 58 55 55 49 41 40 40 41
42 43 47 46 45 47 49 62 59 55 61 63 63 62 57 53 46 41 35 35 37 56 55 95 57 41 32 31 37 41 55 57 65 66 63 55 47 50 47 47 46 47 51
40 45 43 44 43 47 50 51 56 62 60 60 56 55 54 46 45 49 45 51 61 69 77 69 68 61 50 44 36 59 55 66 66 63 55 45 45 45 48 49 49 50 51
49 50 52 54 54 50 47 51 53 54 55 57 49 40 38 44 46 39 53 50 57 44 73 77 62 61 60 54 54 68 65 62 53 45 35 32 35 40 42 43 42 42 44
40 38 35 36 37 40 40 44 45 52 48 45 44 42 44 39 37 45 43 47 55 53 60 54 58 49 56 63 57 53 50 38 31 30 35 35 37 38 36 37 36 35 38
36 35 38 36 39 45 33 36 38 39 38 35 34 28 25 34 39 40 38 35 40 37 42 54 54 52 44 41 44 36 27 24 25 31 28 29 30 33 36 33 33 34 38
36 35 32 33 33 38 30 28 29 30 22 17 18 22 21 26 31 31 25 29 30 29 35 50 47 41 38 32 25 25 19 19 20 30 26 24 30 32 32 30 29 32 35
31 32 29 31 29 27 33 22 20 19 24 26 27 26 24 24 24 24 26 24 27 37 32 29 29 24 22 23 16 23 23 27 23 23 25 26 33 34 27 27 24 26 27
29 29 30 30 34 33 24 26 22 29 27 24 22 24 27 32 30 31 28 37 24 17 21 21 26 27 19 23 21 21 23 23 24 18 21 24 36 29 29 24 23 24 27
28 30 31 29 27 20 31 31 26 22 24 20 24 27 27 27 29 23 18 19 21 25 17 15 16 16 19 21 22 24 25 23 22 20 16 26 30 26 24 19 19 20 32
28 28 34 36 37 33 25 21 18 15 19 21 23 25 26 27 26 26 21 16 16 19 19 23 21 22 23 28 30 32 31 24 20 18 18 27 28 17 19 23 27 28 31
44 47 49 54 57 54 44 38 29 29 30 35 29 25 22 24 25 24 25 20 14 13 10 19 24 22 21 26 32 35 36 29 25 21 17 24 23 21 22 25 24 25 32
46 42 44 46 46 52 50 45 40 33 29 28 27 30 28 27 31 29 28 21 26 34 22 17 25 27 22 29 33 31 32 25 21 18 13 21 26 28 18 20 24 27 23
36 39 37 40 38 47 38 34 27 22 22 23 16 33 39 32 31 29 26 27 29 27 17 23 30 23 20 27 31 34 32 26 21 18 18 22 26 34 22 16 22 26 21
34 26 31 31 31 30 40 30 30 29 24 26 26 32 39 41 45 42 32 30 21 24 25 26 26 25 27 26 30 28 28 25 25 18 19 26 26 32 17 9 20 20 24
Wind_Direction_500mb
277 281 271 272 266 278 287 280 271 267 272 257 253 234 227 255 273 282 305 303 299 291 289 300 309 309 309 309 305 300 297 293 290 287 284 280 277 274 272 271 269 267 266
288 299 307 309 291 274 283 283 280 279 277 275 247 247 253 238 256 279 268 315 293 292 288 292 302 306 309 309 305 300 296 292 289 287 284 280 277 276 273 271 272 271 270
296 307 305 286 300 300 293 295 285 281 283 277 243 243 248 259 263 286 266 250 272 288 295 293 296 307 312 309 304 299 298 295 291 288 284 281 279 278 276 273 272 273 273
309 297 297 298 284 287 293 287 268 275 273 273 246 234 233 244 251 262 257 247 245 259 286 299 295 305 311 308 305 297 295 294 294 292 288 284 280 279 278 276 274 273 272
289 292 294 286 284 298 281 263 277 278 281 275 258 250 254 256 254 251 252 250 260 257 254 278 286 307 314 306 306 298 293 291 292 292 289 287 286 283 281 278 276 274 273
304 296 301 293 296 300 285 277 265 274 257 261 256 257 259 246 254 256 259 265 266 262 274 274 281 298 299 301 303 295 294 290 292 290 288 286 286 286 285 283 281 278 275
291 297 304 294 299 289 271 261 275 271 264 259 257 262 258 255 254 258 260 251 257 262 276 278 288 288 286 295 293 297 294 292 293 285 285 282 285 286 287 286 284 281 277
310 309 292 288 281 286 274 287 283 265 270 262 260 274 280 270 266 261 251 258 250 261 269 275 283 282 287 285 282 287 293 290 291 284 285 287 289 289 288 287 285 283 279
287 285 287 290 285 269 276 279 284 270 269 265 270 258 279 273 285 285 289 286 290 257 267 274 273 275 282 279 286 280 279 280 290 283 291 293 295 293 292 290 288 286 285
315 309 304 287 285 274 265 273 275 276 268 270 272 268 257 264 270 282 277 279 281 277 274 276 276 285 280 272 276 288 275 279 284 284 293 295 295 298 298 298 295 297 291
297 307 305 286 275 265 270 267 264 268 269 269 271 279 275 281 269 260 275 276 288 277 281 285 292 281 283 279 283 274 277 283 284 292 292 296 303 296 295 295 296 293 285
304 300 286 288 270 267 269 270 273 270 270 267 265 269 275 283 294 290 287 286 291 288 304 302 296 282 284 278 268 266 277 276 288 302 295 294 296 295 294 286 289 286 280
304 298 295 299 298 292 289 272 272 272 272 271 273 275 274 270 282 289 289 305 316 302 300 304 308 305 315 274 268 280 292 286 303 298 294 294 289 284 281 284 286 286 281
301 295 304 290 291 295 298 295 295 279 279 278 278 276 272 272 280 291 302 307 318 313 305 301 295 291 296 302 287 293 288 296 301 297 296 290 283 280 282 286 290 283 282
303 306 301 299 296 297 294 289 285 289 284 278 276 278 282 282 297 294 314 312 309 282 299 302 303 294 282 298 298 295 296 301 297 292 284 269 278 289 293 291 290 286 281
326 321 322 321 316 308 297 294 290 284 285 283 286 283 291 295 304 309 306 304 297 294 289 297 305 301 293 284 293 295 302 300 296 290 283 290 293 296 298 297 295 297 293
329 324 325 330 321 318 305 301 296 289 293 288 288 290 303 310 304 304 303 300 305 303 298 296 296 298 297 294 296 303 297 300 294 290 300 311 313 312 307 302 305 306 302
351 348 331 333 347 325 312 305 300 301 312 326 327 310 308 317 313 311 328 320 312 314 300 302 304 305 299 292 298 310 314 290 283 289 304 321 323 319 314 306 305 304 308
337 334 337 339 348 2 359 348 359 348 351 341 337 334 317 310 326 331 328 314 313 307 315 310 311 326 319 316 308 313 308 311 298 303 297 313 319 312 299 304 310 313 318
341 347 342 343 345 355 333 337 345 352 344 339 329 319 324 317 317 327 326 324 329 347 339 330 325 337 355 344 335 320 310 294 290 300 293 314 313 306 297 300 306 311 316
351 348 345 349 346 352 321 327 336 347 329 334 337 333 336 339 342 354 17 357 352 354 343 329 343 354 351 353 342 325 325 316 322 302 314 321 310 300 310 298 289 297 312
11 15 24 24 24 21 14 18 30 7 352 347 351 6 30 45 23 12 14 14 10 12 358 350 342 348 3 356 346 331 318 320 315 304 329 324 313 295 290 294 293 292 306
46 47 53 52 49 49 50 49 44 45 51 54 51 42 29 5 9 349 344 341 334 319 324 337 339 344 347 337 342 334 327 316 305 312 318 328 328 309 294 300 297 303 315
42 51 54 49 45 56 63 61 54 40 45 39 36 19 9 0 345 350 346 327 316 320 319 313 316 318 327 338 339 333 326 320 324 309 325 330 326 324 302 299 300 308 312
45 41 45 45 40 43 47 53 46 39 14 27 30 15 358 3 355 345 345 333 331 333 315 315 331 332 328 338 333 335 338 334 325 327 331 346 328 324 321 282 295 310 325
40 45 42 41 34 28 32 37 38 26 24 24 26 8 6 26 27 25 22 6 349 347 353 339 329 338 348 343 337 331 339 325 329 330 326 341 329 321 323 296 294 311 328
Wind_Speed_850mb
13 13 14 14 22 21 28 30 31 42 43 37 25 24 23 14 20 24 23 29 33 29 25 26 26 26 26 27 29 34 37 38 40 40 41 43 49 52 54 55 56 57 58
13 13 17 17 21 24 27 24 30 37 41 44 37 37 47 32 22 25 13 29 43 40 31 26 26 25 27 29 32 36 38 40 43 43 43 44 47 49 52 54 58 60 62
15 18 16 22 27 27 35 25 27 32 38 36 35 37 29 32 28 48 23 26 37 40 35 30 27 29 33 33 34 37 40 41 43 44 46 49 51 51 52 53 57 61 63
20 20 19 23 27 31 26 23 23 25 30 42 46 45 41 41 47 32 31 35 29 29 32 36 34 32 36 39 38 38 39 41 45 45 48 52 55 58 61 61 60 61 63
20 22 25 30 38 36 33 27 35 28 30 30 39 46 40 32 32 37 37 37 32 34 24 29 38 42 38 43 43 40 40 41 46 50 52 56 59 60 62 63 65 67 70
20 26 20 26 35 22 21 23 23 25 23 24 23 28 29 30 31 35 36 35 32 32 29 28 29 31 40 44 48 46 41 40 44 52 56 60 62 62 64 66 67 66 69
23 29 25 22 34 22 26 27 30 27 28 27 27 31 38 53 44 43 40 38 36 35 37 38 39 36 30 40 44 44 49 51 56 58 56 60 59 61 64 67 68 69 72
25 27 32 33 25 33 29 41 40 31 34 29 35 35 42 41 44 46 41 41 38 40 41 39 36 37 37 37 39 48 56 64 58 56 51 56 59 61 62 64 66 68 71
30 26 25 26 30 34 32 37 40 33 36 40 40 38 34 47 47 47 54 50 49 41 38 44 44 38 46 41 51 49 47 53 56 51 59 61 62 62 62 63 64 69 70
32 33 40 38 34 37 40 39 35 43 45 48 44 44 48 52 52 54 52 55 57 51 47 38 49 48 44 41 44 46 58 54 52 58 63 62 55 59 56 55 60 61 50
36 32 33 45 38 40 47 47 54 58 54 52 49 54 53 52 48 51 60 51 55 57 67 64 47 49 58 57 71 61 53 55 57 59 53 56 62 55 53 46 46 40 40
39 33 35 42 47 55 56 58 54 57 59 60 58 56 50 50 51 50 53 48 49 49 46 48 35 44 55 50 37 45 61 62 61 60 58 58 55 55 49 41 40 40 41
42 43 47 46 45 47 49 62 59 55 61 63 63 62 57 53 46 41 35 35 37 56 55 95 57 41 32 31 37 41 55 57 65 66 63 55 47 50 47 47 46 47 51
40 45 43 44 43 47 50 51 56 62 60 60 56 55 54 46 45 49 45 51 61 69 77 69 68 61 50 44 36 59 55 66 66 63 55 45 45 45 48 49 49 50 51
49 50 52 54 54 50 47 51 53 54 55 57 49 40 38 44 46 39 53 50 57 44 73 77 62 61 60 54 54 68 65 62 53 45 35 32 35 40 42 43 42 42 44
40 38 35 36 37 40 40 44 45 52 48 45 44 42 44 39 37 45 43 47 55 53 60 54 58 49 56 63 57 53 50 38 31 30 35 35 37 38 36 37 36 35 38
36 35 38 36 39 45 33 36 38 39 38 35 34 28 25 34 39 40 38 35 40 37 42 54 54 52 44 41 44 36 27 24 25 31 28 29 30 33 36 33 33 34 38
36 35 32 33 33 38 30 28 29 30 22 17 18 22 21 26 31 31 25 29 30 29 35 50 47 41 38 32 25 25 19 19 20 30 26 24 30 32 32 30 29 32 35
31 32 29 31 29 27 33 22 20 19 24 26 27 26 24 24 24 24 26 24 27 37 32 29 29 24 22 23 16 23 23 27 23 23 25 26 33 34 27 27 24 26 27
29 29 30 30 34 33 24 26 22 29 27 24 22 24 27 32 30 31 28 37 24 17 21 21 26 27 19 23 21 21 23 23 24 18 21 24 36 29 29 24 23 24 27
28 30 31 29 27 20 31 31 26 22 24 20 24 27 27 27 29 23 18 19 21 25 17 15 16 16 19 21 22 24 25 23 22 20 16 26 30 26 24 19 19 20 32
28 28 34 36 37 33 25 21 18 15 19 21 23 25 26 27 26 26 21 16 16 19 19 23 21 22 23 28 30 32 31 24 20 18 18 27 28 17 19 23 27 28 31
44 47 49 54 57 54 44 38 29 29 30 35 29 25 22 24 25 24 25 20 14 13 10 19 24 22 21 26 32 35 36 29 25 21 17 24 23 21 22 25 24 25 32
46 42 44 46 46 52 50 45 40 33 29 28 27 30 28 27 31 29 28 21 26 34 22 17 25 27 22 29 33 31 32 25 21 18 13 21 26 28 18 20 24 27 23
36 39 37 40 38 47 38 34 27 22 22 23 16 33 39 32 31 29 26 27 29 27 17 23 30 23 20 27 31 34 32 26 21 18 18 22 26 34 22 16 22 26 21
34 26 31 31 31 30 40 30 30 29 24 26 26 32 39 41 45 42 32 30 21 24 25 26 26 25 27 26 30 28 28 25 25 18 19 26 26 32 17 9 20 20 24
Wind_Direction_850mb
277 281 271 272 266 278 287 280 271 267 272 257 253 234 227 255 273 282 305 303 299 291 289 300 309 309 309 309 305 300 297 293 290 287 284 280 277 274 272 271 269 267 266
288 299 307 309 291 274 283 283 280 279 277 275 247 247 253 238 256 279 268 315 293 292 288 292 302 306 309 309 305 300 296 292 289 287 284 280 277 276 273 271 272 271 270
296 307 305 286 300 300 293 295 285 281 283 277 243 243 248 259 263 286 266 250 272 288 295 293 296 307 312 309 304 299 298 295 291 288 284 281 279 278 276 273 272 273 273
309 297 297 298 284 287 293 287 268 275 273 273 246 234 233 244 251 262 257 247 245 259 286 299 295 305 311 308 305 297 295 294 294 292 288 284 280 279 278 276 274 273 272
289 292 294 286 284 298 281 263 277 278 281 275 258 250 254 256 254 251 252 250 260 257 254 278 286 307 314 306 306 298 293 291 292 292 289 287 286 283 281 278 276 274 273
304 296 301 293 296 300 285 277 265 274 257 261 256 257 259 246 254 256 259 265 266 262 274 274 281 298 299 301 303 295 294 290 292 290 288 286 286 286 285 283 281 278 275
291 297 304 294 299 289 271 261 275 271 264 259 257 262 258 255 254 258 260 251 257 262 276 278 288 288 286 295 293 297 294 292 293 285 285 282 285 286 287 286 284 281 277
310 309 292 288 281 286 274 287 283 265 270 262 260 274 280 270 266 261 251 258 250 261 269 275 283 282 287 285 282 287 293 290 291 284 285 287 289 289 288 287 285 283 279
287 285 287 290 285 269 276 279 284 270 269 265 270 258 279 273 285 285 289 286 290 257 267 274 273 275 282 279 286 280 279 280 290 283 291 293 295 293 292 290 288 286 285
315 309 304 287 285 274 265 273 275 276 268 270 272 268 257 264 270 282 277 279 281 277 274 276 276 285 280 272 276 288 275 279 284 284 293 295 295 298 298 298 295 297 291
297 307 305 286 275 265 270 267 264 268 269 269 271 279 275 281 269 260 275 276 288 277 281 285 292 281 283 279 283 274 277 283 284 292 292 296 303 296 295 295 296 293 285
304 300 286 288 270 267 269 270 273 270 270 267 265 269 275 283 294 290 287 286 291 288 304 302 296 282 284 278 268 266 277 276 288 302 295 294 296 295 294 286 289 286 280
304 298 295 299 298 292 289 272 272 272 272 271 273 275 274 270 282 289 289 305 316 302 300 304 308 305 315 274 268 280 292 286 303 298 294 294 289 284 281 284 286 286 281
301 295 304 290 291 295 298 295 295 279 279 278 278 276 272 272 280 291 302 307 318 313 305 301 295 291 296 302 287 293 288 296 301 297 296 290 283 280 282 286 290 283 282
303 306 301 299 296 297 294 289 285 289 284 278 276 278 282 282 297 294 314 312 309 282 299 302 303 294 282 298 298 295 296 301 297 292 284 269 278 289 293 291 290 286 281
326 321 322 321 316 308 297 294 290 284 285 283 286 283 291 295 304 309 306 304 297 294 289 297 305 301 293 284 293 295 302 300 296 290 283 290 293 296 298 297 295 297 293
329 324 325 330 321 318 305 301 296 289 293 288 288 290 303 310 304 304 303 300 305 303 298 296 296 298 297 294 296 303 297 300 294 290 300 311 313 312 307 302 305 306 302
351 348 331 333 347 325 312 305 300 301 312 326 327 310 308 317 313 311 328 320 312 314 300 302 304 305 299 292 298 310 314 290 283 289 304 321 323 319 314 306 305 304 308
337 334 337 339 348 2 359 348 359 348 351 341 337 334 317 310 326 331 328 314 313 307 315 310 311 326 319 316 308 313 308 311 298 303 297 313 319 312 299 304 310 313 318
341 347 342 343 345 355 333 337 345 352 344 339 329 319 324 317 317 327 326 324 329 347 339 330 325 337 355 344 335 320 310 294 290 300 293 314 313 306 297 300 306 311 316
351 348 345 349 346 352 321 327 336 347 329 334 337 333 336 339 342 354 17 357 352 354 343 329 343 354 351 353 342 325 325 316 322 302 314 321 310 300 310 298 289 297 312
11 15 24 24 24 21 14 18 30 7 352 347 351 6 30 45 23 12 14 14 10 12 358 350 342 348 3 356 346 331 318 320 315 304 329 324 313 295 290 294 293 292 306
46 47 53 52 49 49 50 49 44 45 51 54 51 42 29 5 9 349 344 341 334 319 324 337 339 344 347 337 342 334 327 316 305 312 318 328 328 309 294 300 297 303 315
42 51 54 49 45 56 63 61 54 40 45 39 36 19 9 0 345 350 346 327 316 320 319 313 316 318 327 338 339 333 326 320 324 309 325 330 326 324 302 299 300 308 312
45 41 45 45 40 43 47 53 46 39 14 27 30 15 358 3 355 345 345 333 331 333 315 315 331 332 328 338 333 335 338 334 325 327 331 346 328 324 321 282 295 310 325
40 45 42 41 34 28 32 37 38 26 24 24 26 8 6 26 27 25 22 6 349 347 353 339 329 338 348 343 337 331 339 325 329 330 326 341 329 321 323 296 294 311 328